#datetime,building,power
2022-11-15T00:00:00,cen,10.80
2022-11-15T00:02:00,cen,9.59
2022-11-15T00:04:00,cen,9.61
2022-11-15T00:06:00,cen,9.59
2022-11-15T00:07:00,cen,6.01
2022-11-15T00:09:00,cen,9.59
2022-11-15T00:10:00,cen,3.60
2022-11-15T00:12:00,cen,12.00
2022-11-15T00:14:00,cen,10.80
2022-11-15T00:16:00,cen,9.59
2022-11-15T00:18:00,cen,9.61
2022-11-15T00:20:00,cen,8.39
2022-11-15T00:21:00,cen,4.80
2022-11-15T00:22:00,cen,4.80
2022-11-15T00:24:00,cen,8.39
2022-11-15T00:26:00,cen,8.41
2022-11-15T00:28:00,cen,8.39
2022-11-15T00:30:00,cen,9.59
2022-11-15T00:31:00,cen,4.80
2022-11-15T00:33:00,cen,9.59
2022-11-15T00:34:00,cen,3.60
2022-11-15T00:36:00,cen,9.59
2022-11-15T00:38:00,cen,8.41
2022-11-15T00:39:00,cen,4.80
2022-11-15T00:41:00,cen,10.80
2022-11-15T00:43:00,cen,8.39
2022-11-15T00:45:00,cen,9.61
2022-11-15T00:47:00,cen,9.59
2022-11-15T00:49:00,cen,10.80
2022-11-15T00:51:00,cen,8.41
2022-11-15T00:52:00,cen,4.79
2022-11-15T00:54:00,cen,8.41
2022-11-15T00:56:00,cen,8.39
2022-11-15T00:57:00,cen,3.60
2022-11-15T00:59:00,cen,10.80
2022-11-15T01:01:00,cen,8.41
2022-11-15T01:03:00,cen,9.59
2022-11-15T01:04:00,cen,4.80
2022-11-15T01:05:00,cen,4.80
2022-11-15T01:07:00,cen,8.39
2022-11-15T01:09:00,cen,8.39
2022-11-15T01:10:00,cen,4.80
2022-11-15T01:12:00,cen,9.59
2022-11-15T01:13:00,cen,4.80
2022-11-15T01:15:00,cen,9.59
2022-11-15T01:17:00,cen,8.41
2022-11-15T01:19:00,cen,9.59
2022-11-15T01:21:00,cen,8.41
2022-11-15T01:23:00,cen,9.59
2022-11-15T01:25:00,cen,8.41
2022-11-15T01:27:00,cen,8.39
2022-11-15T01:29:00,cen,9.59
2022-11-15T01:31:00,cen,10.81
2022-11-15T01:33:00,cen,9.59
2022-11-15T01:35:00,cen,8.39
2022-11-15T01:36:00,cen,4.80
2022-11-15T01:38:00,cen,8.41
2022-11-15T01:40:00,cen,9.59
2022-11-15T01:42:00,cen,9.59
2022-11-15T01:44:00,cen,9.61
2022-11-15T01:46:00,cen,8.39
2022-11-15T01:47:00,cen,6.01
2022-11-15T01:49:00,cen,10.80
2022-11-15T01:51:00,cen,9.59
2022-11-15T01:52:00,cen,4.80
2022-11-15T01:54:00,cen,8.39
2022-11-15T01:56:00,cen,9.61
2022-11-15T01:58:00,cen,9.59
2022-11-15T02:00:00,cen,9.59
2022-11-15T02:01:00,cen,4.80
2022-11-15T02:03:00,cen,10.80
2022-11-15T02:05:00,cen,9.61
2022-11-15T02:06:00,cen,5.99
2022-11-15T02:07:00,cen,4.80
2022-11-15T02:09:00,cen,10.80
2022-11-15T02:11:00,cen,10.81
2022-11-15T02:13:00,cen,10.80
2022-11-15T02:14:00,cen,4.80
2022-11-15T02:16:00,cen,8.39
2022-11-15T02:17:00,cen,6.01
2022-11-15T02:19:00,cen,9.59
2022-11-15T02:21:00,cen,9.59
2022-11-15T02:22:00,cen,4.80
2022-11-15T02:24:00,cen,10.80
2022-11-15T02:25:00,cen,4.80
2022-11-15T02:27:00,cen,10.80
2022-11-15T02:29:00,cen,9.61
2022-11-15T02:31:00,cen,9.59
2022-11-15T02:33:00,cen,8.39
2022-11-15T02:35:00,cen,10.81
2022-11-15T02:37:00,cen,8.39
2022-11-15T02:39:00,cen,8.41
2022-11-15T02:41:00,cen,9.59
2022-11-15T02:42:00,cen,3.60
2022-11-15T02:44:00,cen,9.59
2022-11-15T02:46:00,cen,8.41
2022-11-15T02:48:00,cen,7.19
2022-11-15T02:49:00,cen,10.80
2022-11-15T02:51:00,cen,25.21
2022-11-15T02:52:00,cen,12.00
2022-11-15T02:54:00,cen,19.20
2022-11-15T02:56:00,cen,10.80
2022-11-15T02:58:00,cen,10.80
2022-11-15T02:59:00,cen,4.80
2022-11-15T03:01:00,cen,8.39
2022-11-15T03:02:00,cen,4.80
2022-11-15T03:04:00,cen,8.39
2022-11-15T03:06:00,cen,10.81
2022-11-15T03:07:00,cen,4.79
2022-11-15T03:09:00,cen,9.61
2022-11-15T03:11:00,cen,9.59
2022-11-15T03:13:00,cen,8.39
2022-11-15T03:15:00,cen,9.61
2022-11-15T03:17:00,cen,12.00
2022-11-15T03:19:00,cen,9.59
2022-11-15T03:21:00,cen,9.61
2022-11-15T03:23:00,cen,10.80
2022-11-15T03:25:00,cen,8.39
2022-11-15T03:27:00,cen,9.61
2022-11-15T03:29:00,cen,9.59
2022-11-15T03:30:00,cen,4.80
2022-11-15T03:32:00,cen,9.59
2022-11-15T03:34:00,cen,9.61
2022-11-15T03:36:00,cen,9.59
2022-11-15T03:38:00,cen,9.59
2022-11-15T03:40:00,cen,8.41
2022-11-15T03:42:00,cen,8.39
2022-11-15T03:43:00,cen,4.80
2022-11-15T03:45:00,cen,8.39
2022-11-15T03:46:00,cen,3.60
2022-11-15T03:48:00,cen,9.59
2022-11-15T03:50:00,cen,9.61
2022-11-15T03:52:00,cen,8.39
2022-11-15T03:54:00,cen,10.81
2022-11-15T03:55:00,cen,4.79
2022-11-15T03:57:00,cen,8.41
2022-11-15T03:59:00,cen,8.39
2022-11-15T04:00:00,cen,4.80
2022-11-15T04:02:00,cen,8.39
2022-11-15T04:04:00,cen,12.00
2022-11-15T04:05:00,cen,7.21
2022-11-15T04:07:00,cen,10.80
2022-11-15T04:09:00,cen,10.80
2022-11-15T04:11:00,cen,14.41
2022-11-15T04:13:00,cen,12.00
2022-11-15T04:15:00,cen,12.00
2022-11-15T04:17:00,cen,10.80
2022-11-15T04:18:00,cen,7.21
2022-11-15T04:20:00,cen,13.20
2022-11-15T04:22:00,cen,14.40
2022-11-15T04:24:00,cen,13.20
2022-11-15T04:26:00,cen,12.00
2022-11-15T04:28:00,cen,12.00
2022-11-15T04:29:00,cen,7.21
2022-11-15T04:31:00,cen,14.40
2022-11-15T04:33:00,cen,14.40
2022-11-15T04:35:00,cen,10.80
2022-11-15T04:37:00,cen,10.81
2022-11-15T04:39:00,cen,12.00
2022-11-15T04:41:00,cen,12.00
2022-11-15T04:43:00,cen,12.00
2022-11-15T04:45:00,cen,10.80
2022-11-15T04:47:00,cen,12.01
2022-11-15T04:48:00,cen,7.19
2022-11-15T04:50:00,cen,12.00
2022-11-15T04:52:00,cen,12.01
2022-11-15T04:53:00,cen,4.79
2022-11-15T04:55:00,cen,12.00
2022-11-15T04:57:00,cen,9.61
2022-11-15T04:59:00,cen,10.80
2022-11-15T05:01:00,cen,10.80
2022-11-15T05:03:00,cen,9.61
2022-11-15T05:05:00,cen,10.80
2022-11-15T05:07:00,cen,10.80
2022-11-15T05:09:00,cen,12.00
2022-11-15T05:11:00,cen,12.01
2022-11-15T05:12:00,cen,4.79
2022-11-15T05:14:00,cen,10.81
2022-11-15T05:16:00,cen,9.59
2022-11-15T05:18:00,cen,9.59
2022-11-15T05:20:00,cen,10.81
2022-11-15T05:22:00,cen,10.80
2022-11-15T05:24:00,cen,9.59
2022-11-15T05:26:00,cen,10.81
2022-11-15T05:28:00,cen,10.80
2022-11-15T05:29:00,cen,4.80
2022-11-15T05:31:00,cen,9.59
2022-11-15T05:32:00,cen,5.99
2022-11-15T05:33:00,cen,4.80
2022-11-15T05:35:00,cen,13.20
2022-11-15T05:37:00,cen,10.81
2022-11-15T05:39:00,cen,17.99
2022-11-15T05:41:00,cen,27.61
2022-11-15T05:43:00,cen,26.40
2022-11-15T05:45:00,cen,10.80
2022-11-15T05:47:00,cen,10.80
2022-11-15T05:49:00,cen,9.61
2022-11-15T05:51:00,cen,10.80
2022-11-15T05:53:00,cen,12.00
2022-11-15T05:54:00,cen,4.80
2022-11-15T05:56:00,cen,9.59
2022-11-15T05:58:00,cen,10.80
2022-11-15T06:00:00,cen,9.61
2022-11-15T06:02:00,cen,8.39
2022-11-15T06:04:00,cen,9.61
2022-11-15T06:05:00,cen,4.79
2022-11-15T06:07:00,cen,9.61
2022-11-15T06:08:00,cen,4.79
2022-11-15T06:10:00,cen,9.61
2022-11-15T06:12:00,cen,10.80
2022-11-15T06:14:00,cen,10.80
2022-11-15T06:16:00,cen,8.41
2022-11-15T06:17:00,cen,5.99
2022-11-15T06:19:00,cen,10.81
2022-11-15T06:20:00,cen,4.79
2022-11-15T06:22:00,cen,10.81
2022-11-15T06:24:00,cen,10.80
2022-11-15T06:26:00,cen,12.00
2022-11-15T06:28:00,cen,12.00
2022-11-15T06:30:00,cen,12.00
2022-11-15T06:32:00,cen,13.21
2022-11-15T06:34:00,cen,10.80
2022-11-15T06:36:00,cen,10.80
2022-11-15T06:38:00,cen,10.80
2022-11-15T06:40:00,cen,12.01
2022-11-15T06:42:00,cen,10.80
2022-11-15T06:43:00,cen,4.80
2022-11-15T06:45:00,cen,10.80
2022-11-15T06:46:00,cen,5.99
2022-11-15T06:48:00,cen,12.01
2022-11-15T06:50:00,cen,12.00
2022-11-15T06:52:00,cen,13.20
2022-11-15T06:54:00,cen,10.80
2022-11-15T06:56:00,cen,9.61
2022-11-15T06:58:00,cen,10.80
2022-11-15T07:00:00,cen,9.59
2022-11-15T07:02:00,cen,8.41
2022-11-15T07:04:00,cen,13.20
2022-11-15T07:06:00,cen,16.80
2022-11-15T07:08:00,cen,16.80
2022-11-15T07:10:00,cen,17.99
2022-11-15T07:12:00,cen,18.00
2022-11-15T07:14:00,cen,18.00
2022-11-15T07:15:00,cen,8.39
2022-11-15T07:17:00,cen,15.60
2022-11-15T07:19:00,cen,16.80
2022-11-15T07:21:00,cen,16.80
2022-11-15T07:22:00,cen,8.41
2022-11-15T07:24:00,cen,14.40
2022-11-15T07:25:00,cen,7.19
2022-11-15T07:27:00,cen,15.60
2022-11-15T07:29:00,cen,15.60
2022-11-15T07:31:00,cen,16.80
2022-11-15T07:33:00,cen,16.80
2022-11-15T07:35:00,cen,15.60
2022-11-15T07:37:00,cen,15.60
2022-11-15T07:39:00,cen,16.80
2022-11-15T07:41:00,cen,15.60
2022-11-15T07:43:00,cen,15.60
2022-11-15T07:45:00,cen,14.40
2022-11-15T07:47:00,cen,14.40
2022-11-15T07:49:00,cen,14.40
2022-11-15T07:51:00,cen,15.60
2022-11-15T07:53:00,cen,15.60
2022-11-15T07:55:00,cen,14.40
2022-11-15T07:57:00,cen,15.60
2022-11-15T07:59:00,cen,14.40
2022-11-15T08:00:00,cen,8.39
2022-11-15T08:02:00,cen,15.60
2022-11-15T08:04:00,cen,19.20
2022-11-15T08:05:00,cen,8.39
2022-11-15T08:07:00,cen,18.00
2022-11-15T08:09:00,cen,20.41
2022-11-15T08:11:00,cen,22.79
2022-11-15T08:13:00,cen,22.81
2022-11-15T08:15:00,cen,22.79
2022-11-15T08:17:00,cen,23.99
2022-11-15T08:19:00,cen,24.01
2022-11-15T08:21:00,cen,28.80
2022-11-15T08:22:00,cen,13.20
2022-11-15T08:24:00,cen,32.40
2022-11-15T08:25:00,cen,19.20
2022-11-15T08:27:00,cen,40.80
2022-11-15T08:29:00,cen,38.39
2022-11-15T08:31:00,cen,25.21
2022-11-15T08:32:00,cen,12.00
2022-11-15T08:34:00,cen,23.99
2022-11-15T08:36:00,cen,24.01
2022-11-15T08:37:00,cen,13.20
2022-11-15T08:38:00,cen,12.00
2022-11-15T08:40:00,cen,26.40
2022-11-15T08:41:00,cen,13.20
2022-11-15T08:43:00,cen,24.01
2022-11-15T08:45:00,cen,23.99
2022-11-15T08:47:00,cen,22.81
2022-11-15T08:49:00,cen,26.40
2022-11-15T08:51:00,cen,25.20
2022-11-15T08:53:00,cen,25.20
2022-11-15T08:55:00,cen,25.21
2022-11-15T08:57:00,cen,23.99
2022-11-15T08:59:00,cen,25.21
2022-11-15T09:00:00,cen,25.21
2022-11-15T09:01:00,cen,12.00
2022-11-15T09:02:00,cen,23.99
2022-11-15T09:04:00,cen,27.60
2022-11-15T09:06:00,cen,31.20
2022-11-15T09:08:00,cen,30.00
2022-11-15T09:10:00,cen,30.00
2022-11-15T09:12:00,cen,28.80
2022-11-15T09:14:00,cen,27.60
2022-11-15T09:16:00,cen,27.61
2022-11-15T09:18:00,cen,27.60
2022-11-15T09:20:00,cen,27.60
2022-11-15T09:21:00,cen,13.20
2022-11-15T09:23:00,cen,27.60
2022-11-15T09:24:00,cen,14.40
2022-11-15T09:26:00,cen,26.40
2022-11-15T09:28:00,cen,27.61
2022-11-15T09:30:00,cen,28.80
2022-11-15T09:32:00,cen,28.80
2022-11-15T09:33:00,cen,13.20
2022-11-15T09:35:00,cen,27.60
2022-11-15T09:37:00,cen,28.80
2022-11-15T09:39:00,cen,27.60
2022-11-15T09:41:00,cen,27.60
2022-11-15T09:43:00,cen,27.61
2022-11-15T09:45:00,cen,27.60
2022-11-15T09:47:00,cen,26.40
2022-11-15T09:49:00,cen,27.60
2022-11-15T09:51:00,cen,28.80
2022-11-15T09:53:00,cen,28.80
2022-11-15T09:55:00,cen,28.80
2022-11-15T09:57:00,cen,27.61
2022-11-15T09:59:00,cen,28.80
2022-11-15T10:01:00,cen,28.80
2022-11-15T10:03:00,cen,31.20
2022-11-15T10:05:00,cen,30.00
2022-11-15T10:07:00,cen,28.80
2022-11-15T10:09:00,cen,28.80
2022-11-15T10:11:00,cen,31.20
2022-11-15T10:12:00,cen,15.60
2022-11-15T10:14:00,cen,27.60
2022-11-15T10:16:00,cen,27.60
2022-11-15T10:18:00,cen,28.80
2022-11-15T10:20:00,cen,30.00
2022-11-15T10:22:00,cen,27.60
2022-11-15T10:24:00,cen,27.60
2022-11-15T10:26:00,cen,34.80
2022-11-15T10:28:00,cen,46.80
2022-11-15T10:30:00,cen,42.00
2022-11-15T10:32:00,cen,40.80
2022-11-15T10:33:00,cen,15.60
2022-11-15T10:35:00,cen,30.00
2022-11-15T10:36:00,cen,18.00
2022-11-15T10:38:00,cen,30.00
2022-11-15T10:40:00,cen,30.00
2022-11-15T10:41:00,cen,14.40
2022-11-15T10:43:00,cen,32.40
2022-11-15T10:44:00,cen,14.40
2022-11-15T10:46:00,cen,28.80
2022-11-15T10:48:00,cen,28.80
2022-11-15T10:50:00,cen,27.60
2022-11-15T10:51:00,cen,12.01
2022-11-15T10:52:00,cen,13.20
2022-11-15T10:54:00,cen,25.20
2022-11-15T10:56:00,cen,25.20
2022-11-15T10:57:00,cen,12.01
2022-11-15T10:59:00,cen,26.40
2022-11-15T11:00:00,cen,14.40
2022-11-15T11:02:00,cen,26.40
2022-11-15T11:04:00,cen,26.40
2022-11-15T11:06:00,cen,26.41
2022-11-15T11:08:00,cen,26.40
2022-11-15T11:10:00,cen,26.40
2022-11-15T11:12:00,cen,27.60
2022-11-15T11:14:00,cen,26.41
2022-11-15T11:16:00,cen,26.40
2022-11-15T11:18:00,cen,26.40
2022-11-15T11:19:00,cen,13.20
2022-11-15T11:21:00,cen,26.40
2022-11-15T11:23:00,cen,26.41
2022-11-15T11:25:00,cen,25.20
2022-11-15T11:27:00,cen,25.20
2022-11-15T11:28:00,cen,13.20
2022-11-15T11:30:00,cen,26.41
2022-11-15T11:32:00,cen,25.20
2022-11-15T11:33:00,cen,10.80
2022-11-15T11:35:00,cen,22.81
2022-11-15T11:37:00,cen,22.79
2022-11-15T11:39:00,cen,26.40
2022-11-15T11:40:00,cen,10.81
2022-11-15T11:41:00,cen,13.20
2022-11-15T11:43:00,cen,25.20
2022-11-15T11:45:00,cen,22.81
2022-11-15T11:46:00,cen,10.80
2022-11-15T11:48:00,cen,25.20
2022-11-15T11:50:00,cen,26.40
2022-11-15T11:52:00,cen,24.01
2022-11-15T11:53:00,cen,14.40
2022-11-15T11:54:00,cen,15.60
2022-11-15T11:56:00,cen,23.99
2022-11-15T11:57:00,cen,13.20
2022-11-15T11:59:00,cen,27.61
2022-11-15T12:00:00,cen,13.20
2022-11-15T12:02:00,cen,27.60
2022-11-15T12:04:00,cen,25.20
2022-11-15T12:05:00,cen,12.00
2022-11-15T12:07:00,cen,22.81
2022-11-15T12:09:00,cen,30.00
2022-11-15T12:11:00,cen,23.99
2022-11-15T12:13:00,cen,25.21
2022-11-15T12:15:00,cen,22.79
2022-11-15T12:17:00,cen,27.60
2022-11-15T12:19:00,cen,25.20
2022-11-15T12:21:00,cen,25.21
2022-11-15T12:23:00,cen,28.80
2022-11-15T12:25:00,cen,25.20
2022-11-15T12:26:00,cen,19.20
2022-11-15T12:28:00,cen,34.80
2022-11-15T12:29:00,cen,20.39
2022-11-15T12:31:00,cen,36.01
2022-11-15T12:32:00,cen,12.00
2022-11-15T12:34:00,cen,25.20
2022-11-15T12:36:00,cen,24.01
2022-11-15T12:37:00,cen,12.00
2022-11-15T12:39:00,cen,22.79
2022-11-15T12:41:00,cen,22.81
2022-11-15T12:43:00,cen,22.79
2022-11-15T12:45:00,cen,24.01
2022-11-15T12:47:00,cen,25.20
2022-11-15T12:49:00,cen,22.81
2022-11-15T12:50:00,cen,10.80
2022-11-15T12:52:00,cen,23.99
2022-11-15T12:54:00,cen,25.21
2022-11-15T12:56:00,cen,23.99
2022-11-15T12:57:00,cen,13.20
2022-11-15T12:59:00,cen,22.81
2022-11-15T13:01:00,cen,25.20
2022-11-15T13:03:00,cen,22.79
2022-11-15T13:05:00,cen,27.61
2022-11-15T13:07:00,cen,26.40
2022-11-15T13:08:00,cen,12.00
2022-11-15T13:09:00,cen,12.00
2022-11-15T13:11:00,cen,22.81
2022-11-15T13:12:00,cen,10.80
2022-11-15T13:13:00,cen,10.80
2022-11-15T13:15:00,cen,22.81
2022-11-15T13:17:00,cen,22.79
2022-11-15T13:18:00,cen,13.20
2022-11-15T13:19:00,cen,12.01
2022-11-15T13:20:00,cen,13.20
2022-11-15T13:22:00,cen,27.60
2022-11-15T13:23:00,cen,15.60
2022-11-15T13:25:00,cen,25.20
2022-11-15T13:27:00,cen,25.20
2022-11-15T13:28:00,cen,12.01
2022-11-15T13:30:00,cen,22.79
2022-11-15T13:32:00,cen,23.99
2022-11-15T13:34:00,cen,22.81
2022-11-15T13:35:00,cen,10.80
2022-11-15T13:37:00,cen,21.61
2022-11-15T13:39:00,cen,22.79
2022-11-15T13:41:00,cen,21.61
2022-11-15T13:43:00,cen,21.59
2022-11-15T13:45:00,cen,22.81
2022-11-15T13:47:00,cen,21.59
2022-11-15T13:48:00,cen,10.81
2022-11-15T13:50:00,cen,22.79
2022-11-15T13:52:00,cen,22.81
2022-11-15T13:54:00,cen,21.59
2022-11-15T13:56:00,cen,25.21
2022-11-15T13:57:00,cen,12.00
2022-11-15T13:59:00,cen,25.20
2022-11-15T14:00:00,cen,13.20
2022-11-15T14:01:00,cen,12.00
2022-11-15T14:03:00,cen,25.21
2022-11-15T14:05:00,cen,25.20
2022-11-15T14:07:00,cen,25.20
2022-11-15T14:09:00,cen,27.61
2022-11-15T14:11:00,cen,25.20
2022-11-15T14:13:00,cen,23.99
2022-11-15T14:15:00,cen,24.01
2022-11-15T14:16:00,cen,13.20
2022-11-15T14:18:00,cen,26.40
2022-11-15T14:19:00,cen,12.00
2022-11-15T14:21:00,cen,25.21
2022-11-15T14:22:00,cen,13.20
2022-11-15T14:24:00,cen,25.20
2022-11-15T14:25:00,cen,14.40
2022-11-15T14:26:00,cen,18.00
2022-11-15T14:28:00,cen,43.20
2022-11-15T14:29:00,cen,21.59
2022-11-15T14:31:00,cen,33.60
2022-11-15T14:33:00,cen,24.01
2022-11-15T14:34:00,cen,12.00
2022-11-15T14:36:00,cen,23.99
2022-11-15T14:38:00,cen,25.21
2022-11-15T14:40:00,cen,26.40
2022-11-15T14:41:00,cen,13.20
2022-11-15T14:42:00,cen,13.20
2022-11-15T14:44:00,cen,26.40
2022-11-15T14:46:00,cen,20.41
2022-11-15T14:48:00,cen,25.20
2022-11-15T14:50:00,cen,21.61
2022-11-15T14:52:00,cen,23.99
2022-11-15T14:54:00,cen,21.61
2022-11-15T14:56:00,cen,21.59
2022-11-15T14:58:00,cen,22.81
2022-11-15T14:59:00,cen,12.00
2022-11-15T15:01:00,cen,22.79
2022-11-15T15:03:00,cen,21.61
2022-11-15T15:04:00,cen,9.59
2022-11-15T15:05:00,cen,10.81
2022-11-15T15:07:00,cen,22.79
2022-11-15T15:08:00,cen,10.80
2022-11-15T15:10:00,cen,21.61
2022-11-15T15:12:00,cen,21.61
2022-11-15T15:14:00,cen,25.20
2022-11-15T15:16:00,cen,26.40
2022-11-15T15:17:00,cen,14.40
2022-11-15T15:19:00,cen,25.20
2022-11-15T15:21:00,cen,25.21
2022-11-15T15:22:00,cen,12.00
2022-11-15T15:24:00,cen,21.61
2022-11-15T15:25:00,cen,12.00
2022-11-15T15:27:00,cen,21.59
2022-11-15T15:29:00,cen,21.61
2022-11-15T15:31:00,cen,21.59
2022-11-15T15:33:00,cen,24.01
2022-11-15T15:35:00,cen,21.59
2022-11-15T15:37:00,cen,21.61
2022-11-15T15:38:00,cen,9.59
2022-11-15T15:40:00,cen,21.61
2022-11-15T15:42:00,cen,21.59
2022-11-15T15:43:00,cen,10.81
2022-11-15T15:45:00,cen,21.59
2022-11-15T15:47:00,cen,21.61
2022-11-15T15:48:00,cen,10.80
2022-11-15T15:50:00,cen,21.61
2022-11-15T15:51:00,cen,13.20
2022-11-15T15:52:00,cen,10.80
2022-11-15T15:54:00,cen,20.41
2022-11-15T15:56:00,cen,20.39
2022-11-15T15:58:00,cen,19.20
2022-11-15T15:59:00,cen,9.59
2022-11-15T16:01:00,cen,21.61
2022-11-15T16:03:00,cen,20.41
2022-11-15T16:05:00,cen,19.19
2022-11-15T16:06:00,cen,9.61
2022-11-15T16:08:00,cen,22.79
2022-11-15T16:10:00,cen,24.01
2022-11-15T16:11:00,cen,10.80
2022-11-15T16:13:00,cen,20.41
2022-11-15T16:14:00,cen,9.59
2022-11-15T16:16:00,cen,20.41
2022-11-15T16:18:00,cen,19.19
2022-11-15T16:19:00,cen,9.61
2022-11-15T16:21:00,cen,20.39
2022-11-15T16:23:00,cen,20.41
2022-11-15T16:24:00,cen,10.80
2022-11-15T16:25:00,cen,10.80
2022-11-15T16:27:00,cen,22.81
2022-11-15T16:28:00,cen,9.59
2022-11-15T16:29:00,cen,9.61
2022-11-15T16:30:00,cen,10.80
2022-11-15T16:31:00,cen,9.59
2022-11-15T16:33:00,cen,28.80
2022-11-15T16:34:00,cen,18.00
2022-11-15T16:36:00,cen,28.80
2022-11-15T16:38:00,cen,25.21
2022-11-15T16:39:00,cen,14.40
2022-11-15T16:41:00,cen,32.39
2022-11-15T16:43:00,cen,21.61
2022-11-15T16:45:00,cen,19.20
2022-11-15T16:47:00,cen,19.19
2022-11-15T16:49:00,cen,18.00
2022-11-15T16:51:00,cen,18.00
2022-11-15T16:53:00,cen,21.61
2022-11-15T16:55:00,cen,17.99
2022-11-15T16:57:00,cen,19.20
2022-11-15T16:58:00,cen,9.59
2022-11-15T17:00:00,cen,19.20
2022-11-15T17:01:00,cen,9.61
2022-11-15T17:03:00,cen,16.79
2022-11-15T17:05:00,cen,18.00
2022-11-15T17:07:00,cen,19.20
2022-11-15T17:08:00,cen,7.19
2022-11-15T17:10:00,cen,18.00
2022-11-15T17:12:00,cen,16.80
2022-11-15T17:13:00,cen,8.41
2022-11-15T17:15:00,cen,20.39
2022-11-15T17:16:00,cen,8.41
2022-11-15T17:18:00,cen,16.80
2022-11-15T17:20:00,cen,16.79
2022-11-15T17:22:00,cen,18.00
2022-11-15T17:23:00,cen,8.41
2022-11-15T17:25:00,cen,15.60
2022-11-15T17:27:00,cen,16.80
2022-11-15T17:29:00,cen,20.39
2022-11-15T17:30:00,cen,8.41
2022-11-15T17:31:00,cen,9.59
2022-11-15T17:33:00,cen,15.60
2022-11-15T17:35:00,cen,15.60
2022-11-15T17:36:00,cen,7.19
2022-11-15T17:37:00,cen,8.41
2022-11-15T17:39:00,cen,16.80
2022-11-15T17:41:00,cen,15.60
2022-11-15T17:43:00,cen,16.80
2022-11-15T17:45:00,cen,16.79
2022-11-15T17:46:00,cen,8.41
2022-11-15T17:47:00,cen,8.39
2022-11-15T17:49:00,cen,18.00
2022-11-15T17:50:00,cen,9.59
2022-11-15T17:52:00,cen,15.60
2022-11-15T17:54:00,cen,15.60
2022-11-15T17:55:00,cen,8.41
2022-11-15T17:57:00,cen,16.80
2022-11-15T17:59:00,cen,18.00
2022-11-15T18:00:00,cen,8.39
2022-11-15T18:02:00,cen,18.00
2022-11-15T18:04:00,cen,19.19
2022-11-15T18:06:00,cen,15.60
2022-11-15T18:08:00,cen,15.60
2022-11-15T18:09:00,cen,7.21
2022-11-15T18:11:00,cen,16.80
2022-11-15T18:13:00,cen,16.80
2022-11-15T18:15:00,cen,16.80
2022-11-15T18:16:00,cen,8.39
2022-11-15T18:18:00,cen,18.00
2022-11-15T18:19:00,cen,9.59
2022-11-15T18:20:00,cen,9.61
2022-11-15T18:22:00,cen,19.19
2022-11-15T18:24:00,cen,18.00
2022-11-15T18:25:00,cen,9.59
2022-11-15T18:27:00,cen,18.00
2022-11-15T18:29:00,cen,18.00
2022-11-15T18:31:00,cen,18.00
2022-11-15T18:33:00,cen,18.00
2022-11-15T18:35:00,cen,17.99
2022-11-15T18:36:00,cen,10.81
2022-11-15T18:38:00,cen,16.80
2022-11-15T18:40:00,cen,16.79
2022-11-15T18:42:00,cen,18.00
2022-11-15T18:43:00,cen,9.61
2022-11-15T18:45:00,cen,15.60
2022-11-15T18:47:00,cen,15.60
2022-11-15T18:48:00,cen,8.39
2022-11-15T18:50:00,cen,15.60
2022-11-15T18:52:00,cen,16.80
2022-11-15T18:54:00,cen,19.20
2022-11-15T18:56:00,cen,17.99
2022-11-15T18:58:00,cen,15.60
2022-11-15T19:00:00,cen,16.80
2022-11-15T19:01:00,cen,7.21
2022-11-15T19:03:00,cen,15.60
2022-11-15T19:04:00,cen,9.59
2022-11-15T19:05:00,cen,7.21
2022-11-15T19:06:00,cen,8.39
2022-11-15T19:08:00,cen,15.60
2022-11-15T19:10:00,cen,15.60
2022-11-15T19:12:00,cen,19.20
2022-11-15T19:13:00,cen,8.39
2022-11-15T19:15:00,cen,15.60
2022-11-15T19:17:00,cen,15.60
2022-11-15T19:18:00,cen,8.39
2022-11-15T19:20:00,cen,15.60
2022-11-15T19:22:00,cen,16.80
2022-11-15T19:24:00,cen,15.60
2022-11-15T19:26:00,cen,15.60
2022-11-15T19:27:00,cen,8.41
2022-11-15T19:29:00,cen,17.99
2022-11-15T19:31:00,cen,18.00
2022-11-15T19:33:00,cen,33.60
2022-11-15T19:34:00,cen,15.60
2022-11-15T19:36:00,cen,31.20
2022-11-15T19:37:00,cen,7.19
2022-11-15T19:39:00,cen,16.80
2022-11-15T19:41:00,cen,16.80
2022-11-15T19:42:00,cen,8.41
2022-11-15T19:44:00,cen,16.79
2022-11-15T19:46:00,cen,15.60
2022-11-15T19:47:00,cen,8.41
2022-11-15T19:49:00,cen,16.80
2022-11-15T19:51:00,cen,16.80
2022-11-15T19:53:00,cen,15.60
2022-11-15T19:55:00,cen,16.79
2022-11-15T19:56:00,cen,8.41
2022-11-15T19:57:00,cen,8.39
2022-11-15T19:59:00,cen,15.60
2022-11-15T20:01:00,cen,16.80
2022-11-15T20:03:00,cen,16.80
2022-11-15T20:05:00,cen,19.20
2022-11-15T20:07:00,cen,18.00
2022-11-15T20:09:00,cen,14.40
2022-11-15T20:11:00,cen,15.60
2022-11-15T20:13:00,cen,12.00
2022-11-15T20:14:00,cen,4.79
2022-11-15T20:16:00,cen,9.61
2022-11-15T20:17:00,cen,4.79
2022-11-15T20:19:00,cen,10.81
2022-11-15T20:20:00,cen,3.60
2022-11-15T20:22:00,cen,10.80
2022-11-15T20:24:00,cen,10.80
2022-11-15T20:25:00,cen,7.21
2022-11-15T20:27:00,cen,10.80
2022-11-15T20:28:00,cen,4.80
2022-11-15T20:30:00,cen,9.59
2022-11-15T20:32:00,cen,10.80
2022-11-15T20:34:00,cen,10.80
2022-11-15T20:35:00,cen,4.80
2022-11-15T20:37:00,cen,12.00
2022-11-15T20:39:00,cen,12.01
2022-11-15T20:41:00,cen,13.20
2022-11-15T20:43:00,cen,10.80
2022-11-15T20:44:00,cen,4.80
2022-11-15T20:46:00,cen,10.80
2022-11-15T20:47:00,cen,7.19
2022-11-15T20:48:00,cen,7.19
2022-11-15T20:49:00,cen,10.81
2022-11-15T20:51:00,cen,10.80
2022-11-15T20:52:00,cen,4.80
2022-11-15T20:54:00,cen,9.59
2022-11-15T20:56:00,cen,10.80
2022-11-15T20:57:00,cen,6.01
2022-11-15T20:59:00,cen,13.20
2022-11-15T21:01:00,cen,9.59
2022-11-15T21:03:00,cen,10.81
2022-11-15T21:04:00,cen,3.59
2022-11-15T21:06:00,cen,10.81
2022-11-15T21:07:00,cen,5.99
2022-11-15T21:08:00,cen,6.01
2022-11-15T21:10:00,cen,12.00
2022-11-15T21:12:00,cen,10.80
2022-11-15T21:14:00,cen,13.21
2022-11-15T21:16:00,cen,12.00
2022-11-15T21:18:00,cen,10.80
2022-11-15T21:20:00,cen,12.00
2022-11-15T21:21:00,cen,6.01
2022-11-15T21:23:00,cen,12.00
2022-11-15T21:25:00,cen,10.80
2022-11-15T21:27:00,cen,10.81
2022-11-15T21:29:00,cen,10.80
2022-11-15T21:31:00,cen,13.20
2022-11-15T21:33:00,cen,12.00
2022-11-15T21:35:00,cen,10.80
2022-11-15T21:37:00,cen,10.81
2022-11-15T21:39:00,cen,9.59
2022-11-15T21:41:00,cen,10.80
2022-11-15T21:42:00,cen,4.80
2022-11-15T21:43:00,cen,6.01
2022-11-15T21:45:00,cen,9.59
2022-11-15T21:47:00,cen,9.59
2022-11-15T21:48:00,cen,7.21
2022-11-15T21:50:00,cen,12.00
2022-11-15T21:52:00,cen,9.59
2022-11-15T21:54:00,cen,9.61
2022-11-15T21:56:00,cen,12.00
2022-11-15T21:58:00,cen,10.80
2022-11-15T21:59:00,cen,6.01
2022-11-15T22:01:00,cen,10.80
2022-11-15T22:03:00,cen,12.00
2022-11-15T22:04:00,cen,4.80
2022-11-15T22:06:00,cen,10.80
2022-11-15T22:08:00,cen,13.20
2022-11-15T22:09:00,cen,7.21
2022-11-15T22:11:00,cen,10.80
2022-11-15T22:13:00,cen,13.20
2022-11-15T22:15:00,cen,10.81
2022-11-15T22:16:00,cen,4.79
2022-11-15T22:18:00,cen,10.81
2022-11-15T22:19:00,cen,5.99
2022-11-15T22:21:00,cen,9.61
2022-11-15T22:22:00,cen,5.99
2022-11-15T22:23:00,cen,6.01
2022-11-15T22:25:00,cen,9.59
2022-11-15T22:27:00,cen,12.00
2022-11-15T22:28:00,cen,4.80
2022-11-15T22:30:00,cen,10.80
2022-11-15T22:32:00,cen,9.61
2022-11-15T22:34:00,cen,9.59
2022-11-15T22:36:00,cen,9.59
2022-11-15T22:37:00,cen,6.01
2022-11-15T22:38:00,cen,3.60
2022-11-15T22:40:00,cen,9.59
2022-11-15T22:41:00,cen,6.01
2022-11-15T22:42:00,cen,5.99
2022-11-15T22:44:00,cen,9.61
2022-11-15T22:46:00,cen,9.59
2022-11-15T22:48:00,cen,8.39
2022-11-15T22:50:00,cen,9.61
2022-11-15T22:52:00,cen,9.59
2022-11-15T22:54:00,cen,9.61
2022-11-15T22:55:00,cen,4.79
2022-11-15T22:57:00,cen,10.80
2022-11-15T22:59:00,cen,10.81
2022-11-15T23:01:00,cen,26.40
